FW4376 Weather Reports


time (UTC)temp
C
wind
direction
speed
KPH
gust
KPH
rain 1hr
cm
rain 24hr
cm
rain mn
cm
humidity
%
barometer
mb
20260509043044 22 122 1.6 11.3 0.00 0.00 0.00 82 1009.1
20260509041536 22 167 0.0 3.2 0.00 0.00 0.00 81 1010.6
20260509040045 22 145 0.0 1.6 0.00 0.00 0.00 81 1010.8
20260509034536 22 124 0.0 0.0 0.00 0.00 0.00 81 1010.9
20260509033047 22 122 0.0 1.6 0.00 0.00 0.00 81 1010.2
20260509031533 22 121 0.0 6.4 0.00 0.00 0.00 81 1010.0
20260509030033 22 99 0.0 3.2 0.00 0.00 0.00 81 1010.1
20260509024535 22 218 0.0 3.2 0.00 0.00 0.00 81 1009.8
20260509023032 22 243 0.0 3.2 0.00 0.00 0.00 80 1009.4
20260509021532 22 169 1.6 4.8 0.00 0.00 0.00 80 1009.3
20260509020031 22 171 0.0 3.2 0.00 0.00 0.00 80 1009.2
20260509014532 22 107 0.0 1.6 0.00 0.00 0.00 79 1009.0
20260509013032 22 248 0.0 4.8 0.00 0.00 0.00 79 1008.8
20260509011530 22 122 0.0 3.2 0.00 0.00 0.00 78 1008.7
20260509010035 22 260 0.0 4.8 0.00 0.00 0.00 77 1008.5
20260509004529 22 281 1.6 4.8 0.00 0.00 0.00 76 1008.4
20260509003033 23 290 1.6 8.0 0.00 0.00 0.00 74 1008.3
20260509001530 23 108 0.0 8.0 0.00 0.00 0.00 74 1008.4
20260509000027 23 209 1.6 8.0 0.00 0.00 0.00 73 1008.5
20260508234529 23 138 3.2 8.0 0.00 0.00 0.00 71 1008.8
20260508233032 23 264 1.6 8.0 0.00 0.00 0.00 69 1008.8
20260508231525 24 157 1.6 8.0 0.00 0.00 0.00 70 1008.9
20260508230024 24 213 1.6 12.9 0.00 0.00 0.00 71 1009.1
20260508224524 25 141 3.2 16.1 0.00 0.00 0.00 69 1008.9
20260508223023 26 178 4.8 9.7 0.00 0.00 0.00 67 1008.7
20260508221525 26 245 1.6 11.3 0.00 0.00 0.00 67 1008.6
20260508220021 26 285 1.6 6.4 0.00 0.00 0.00 67 1008.3
20260508214525 25 162 1.6 9.7 0.00 0.00 0.00 70 1008.2
20260508213017 23 261 1.6 6.4 0.00 0.00 0.00 76 1008.9
20260508211518 22 244 1.6 8.0 0.00 0.00 0.00 74 1009.7
20260508210023 23 252 4.8 14.5 0.00 0.00 0.00 70 1010.3
20260508204511 24 240 1.6 9.7 0.00 0.00 0.00 67 1010.3
20260508203010 25 104 1.6 11.3 0.00 0.00 0.00 66 1010.4
20260508201510 26 155 1.6 6.4 0.00 0.00 0.00 63 1010.3
20260508200008 26 242 3.2 12.9 0.00 0.00 0.00 63 1010.3
20260508194509 26 82 3.2 8.0 0.00 0.00 0.00 62 1010.5
20260508193005 27 109 3.2 11.3 0.00 0.00 0.00 61 1010.6
20260508191503 26 255 4.8 12.9 0.00 0.00 0.00 62 1010.9
20260508190003 27 235 4.8 11.3 0.00 0.00 0.00 60 1011.0
20260508184608 26 118 3.2 11.3 0.00 0.00 0.00 60 1010.9
20260508183100 26 110 1.6 8.0 0.00 0.00 0.00 62 1011.2
20260508181558 26 206 4.8 11.3 0.00 0.00 0.00 61 1011.6
20260508180050 25 146 3.2 12.9 0.00 0.00 0.00 63 1011.8
20260508174549 25 238 1.6 8.0 0.00 0.00 0.00 62 1012.1
20260508173044 25 203 3.2 6.4 0.00 0.00 0.00 65 1012.3
20260508171544 23 117 1.6 8.0 0.00 0.00 0.00 66 1012.8
20260508170036 23 92 1.6 9.7 0.00 0.00 0.00 67 1013.1
20260508164533 22 132 3.2 11.3 0.00 0.00 0.00 68 1013.6
20260508163036 22 236 3.2 11.3 0.00 0.00 0.00 68 1014.0
20260508161546 22 205 1.6 9.7 0.00 0.00 0.00 68 1014.2
20260508160030 22 178 3.2 9.7 0.00 0.00 0.00 67 1014.1
20260508154530 21 244 1.6 8.0 0.00 0.00 0.00 68 1014.4
20260508153049 22 232 4.8 12.9 0.00 0.00 0.00 67 1014.4
20260508151529 22 243 3.2 9.7 0.00 0.00 0.00 67 1014.3
20260508150027 22 116 1.6 8.0 0.00 0.00 0.00 67 1014.3
20260508144525 21 141 1.6 9.7 0.00 0.00 0.00 68 1014.3
20260508143025 21 98 1.6 8.0 0.00 0.00 0.00 69 1014.5
20260508141519 20 174 1.6 11.3 0.00 0.00 0.00 71 1014.6
20260508140016 20 165 1.6 6.4 0.00 0.00 0.00 74 1014.7
20260508134516 18 274 3.2 11.3 0.00 0.00 0.00 76 1014.6
20260508133009 17 127 1.6 4.8 0.00 0.00 0.00 80 1014.6
20260508131506 17 156 0.0 4.8 0.00 0.00 0.00 83 1014.8
20260508130004 16 203 0.0 1.6 0.00 0.00 0.00 84 1014.8
20260508124500 16 141 0.0 1.6 0.00 0.00 0.00 84 1015.0
20260508123100 16 137 0.0 4.8 0.00 0.00 0.00 85 1014.9
20260508121600 15 137 0.0 3.2 0.00 0.00 0.00 87 1014.8
20260508120113 15 131 0.0 1.6 0.00 0.00 0.00 88 1014.8
20260508114604 15 120 0.0 1.6 0.00 0.00 0.00 87 1014.8
20260508113103 15 129 0.0 1.6 0.00 0.00 0.00 87 1015.2
20260508111556 15 69 0.0 1.6 0.00 0.00 0.00 87 1015.6
20260508110104 15 249 0.0 3.2 0.00 0.00 0.00 87 1015.9
20260508104559 15 255 0.0 1.6 0.00 0.00 0.00 86 1014.5
20260508103059 15 91 0.0 3.2 0.00 0.00 0.00 86 1014.1
20260508101555 15 104 0.0 3.2 0.00 0.00 0.00 86 1013.9
20260508100111 15 207 0.0 1.6 0.00 0.00 0.00 85 1014.1
20260508094552 15 220 0.0 1.6 0.00 0.00 0.00 85 1014.1
20260508093050 16 113 1.6 6.4 0.00 0.00 0.00 85 1014.3
20260508091607 16 111 0.0 6.4 0.00 0.00 0.00 87 1014.3
20260508090050 16 118 1.6 6.4 0.00 0.00 0.00 88 1014.1
20260508084544 15 171 0.0 0.0 0.00 0.00 0.00 88 1015.0
20260508083043 15 233 0.0 0.0 0.00 0.00 0.00 88 1015.2
20260508081559 15 243 0.0 0.0 0.00 0.00 0.00 87 1015.6
20260508080042 15 231 0.0 1.6 0.00 0.00 0.00 87 1015.6
20260508074541 15 115 0.0 0.0 0.00 0.00 0.00 86 1015.2
20260508073045 15 115 0.0 0.0 0.00 0.00 0.00 87 1015.1
20260508071539 15 115 0.0 1.6 0.00 0.00 0.00 86 1015.2
20260508070036 15 115 0.0 1.6 0.00 0.00 0.00 85 1015.6
20260508064537 15 96 0.0 1.6 0.00 0.00 0.00 85 1015.7
20260508063035 15 193 0.0 0.0 0.00 0.00 0.00 84 1015.8
20260508061535 15 200 0.0 0.0 0.00 0.00 0.00 84 1015.8
20260508060041 15 200 0.0 0.0 0.00 0.00 0.00 85 1015.8
20260508054607 15 203 0.0 0.0 0.00 0.00 0.00 85 1015.9
20260508053044 15 203 0.0 0.0 0.00 0.00 0.00 86 1015.8
20260508051528 15 203 0.0 0.0 0.00 0.00 0.00 85 1015.9
20260508050026 15 202 0.0 0.0 0.00 0.00 0.00 85 1016.0
20260508044526 15 203 0.0 0.0 0.00 0.00 0.00 83 1016.0